| time (UTC) | temp F | wind direction | speed MPH | gust MPH | rain 1hr in | rain 24hr in | rain mn in | humidity % | barometer mb |
| 20260906120412 | 63 | 241 | 0.0 | 0.0 | 0.00 | 0.00 | 0.00 | 99 | 1015.4 |
| 20260906115908 | 63 | 19 | 0.0 | 0.0 | 0.00 | 0.00 | 0.00 | 99 | 1015.7 |
| 20260906115403 | 63 | 154 | 0.0 | 0.0 | 0.00 | 0.00 | 0.00 | 99 | 1015.6 |
| 20260906114902 | 62 | 256 | 0.0 | 0.0 | 0.00 | 0.00 | 0.00 | 99 | 1015.6 |
| 20260906114357 | 62 | 303 | 0.0 | 0.0 | 0.00 | 0.00 | 0.00 | 99 | 1015.3 |
| 20260906113853 | 62 | 252 | 0.0 | 0.0 | 0.00 | 0.00 | 0.00 | 99 | 1015.4 |
| 20260906113352 | 62 | 181 | 0.0 | 0.0 | 0.00 | 0.00 | 0.00 | 99 | 1015.4 |
| 20260906112848 | 61 | 181 | 0.0 | 0.0 | 0.00 | 0.00 | 0.00 | 99 | 1015.4 |
| 20260906112344 | 61 | 175 | 0.0 | 0.0 | 0.00 | 0.00 | 0.00 | 99 | 1015.2 |
| 20260906111844 | 61 | 144 | 0.0 | 0.0 | 0.00 | 0.00 | 0.00 | 99 | 1015.0 |
| 20260906111343 | 61 | 134 | 0.0 | 0.0 | 0.00 | 0.00 | 0.00 | 99 | 1015.0 |
| 20260906110838 | 61 | 245 | 0.0 | 0.0 | 0.00 | 0.00 | 0.00 | 99 | 1014.9 |
| 20260906110334 | 61 | 251 | 0.0 | 0.0 | 0.00 | 0.00 | 0.00 | 99 | 1014.9 |
| 20260906105833 | 61 | 251 | 0.0 | 0.0 | 0.00 | 0.00 | 0.00 | 99 | 1014.9 |
| 20260906105329 | 61 | 261 | 0.0 | 0.0 | 0.00 | 0.00 | 0.00 | 99 | 1014.6 |
| 20260906104824 | 61 | 258 | 0.0 | 0.0 | 0.00 | 0.00 | 0.00 | 99 | 1014.5 |
| 20260906104323 | 61 | 233 | 0.0 | 0.0 | 0.00 | 0.00 | 0.00 | 99 | 1014.8 |
| 20260906103822 | 62 | 267 | 0.0 | 0.0 | 0.00 | 0.00 | 0.00 | 99 | 1014.7 |
| 20260906103320 | 61 | 270 | 0.0 | 0.0 | 0.00 | 0.00 | 0.00 | 99 | 1014.8 |
| 20260906102816 | 61 | 210 | 0.0 | 0.0 | 0.00 | 0.00 | 0.00 | 99 | 1014.7 |
| 20260906102315 | 61 | 210 | 0.0 | 0.0 | 0.00 | 0.00 | 0.00 | 99 | 1014.7 |
| 20260906101811 | 61 | 148 | 0.0 | 0.0 | 0.00 | 0.00 | 0.00 | 99 | 1014.7 |
| 20260906101306 | 61 | 147 | 0.0 | 0.0 | 0.00 | 0.00 | 0.00 | 99 | 1014.4 |
| 20260906100801 | 61 | 194 | 0.0 | 0.0 | 0.00 | 0.00 | 0.00 | 99 | 1014.6 |
| 20260906100300 | 61 | 144 | 0.0 | 0.0 | 0.00 | 0.00 | 0.00 | 99 | 1014.4 |
| 20260906095756 | 61 | 187 | 0.0 | 0.0 | 0.00 | 0.00 | 0.00 | 99 | 1014.4 |
| 20260906095251 | 61 | 159 | 0.0 | 0.0 | 0.00 | 0.00 | 0.00 | 99 | 1014.5 |
| 20260906094750 | 61 | 181 | 0.0 | 0.0 | 0.00 | 0.00 | 0.00 | 99 | 1014.5 |
| 20260906094245 | 61 | 270 | 0.0 | 0.0 | 0.00 | 0.00 | 0.00 | 99 | 1014.4 |
| 20260906093741 | 61 | 288 | 0.0 | 0.0 | 0.00 | 0.00 | 0.00 | 99 | 1014.6 |
| 20260906093237 | 61 | 216 | 0.0 | 0.0 | 0.00 | 0.00 | 0.00 | 99 | 1014.5 |
| 20260906092732 | 61 | 268 | 0.0 | 0.0 | 0.00 | 0.00 | 0.00 | 99 | 1014.5 |
| 20260906092232 | 62 | 261 | 0.0 | 0.0 | 0.00 | 0.00 | 0.00 | 99 | 1014.4 |
| 20260906091728 | 62 | 269 | 0.0 | 0.0 | 0.00 | 0.00 | 0.00 | 99 | 1014.6 |
| 20260906091224 | 62 | 269 | 0.0 | 0.0 | 0.00 | 0.00 | 0.00 | 99 | 1014.6 |
| 20260906090720 | 62 | 277 | 0.0 | 0.0 | 0.00 | 0.00 | 0.00 | 99 | 1014.6 |
| 20260906090219 | 62 | 335 | 0.0 | 0.0 | 0.00 | 0.00 | 0.00 | 99 | 1014.6 |
| 20260906085718 | 62 | 358 | 0.0 | 0.0 | 0.00 | 0.00 | 0.00 | 99 | 1014.5 |
| 20260906085217 | 62 | 284 | 0.0 | 0.0 | 0.00 | 0.00 | 0.00 | 99 | 1014.6 |
| 20260906084713 | 61 | 299 | 0.0 | 0.0 | 0.00 | 0.00 | 0.00 | 99 | 1014.5 |
| 20260906084212 | 61 | 245 | 0.0 | 0.0 | 0.00 | 0.00 | 0.00 | 99 | 1014.8 |
| 20260906083708 | 62 | 269 | 0.0 | 0.0 | 0.00 | 0.00 | 0.00 | 99 | 1014.7 |
| 20260906083203 | 62 | 256 | 0.0 | 0.0 | 0.00 | 0.00 | 0.00 | 99 | 1014.5 |
| 20260906082658 | 62 | 325 | 0.0 | 0.0 | 0.00 | 0.00 | 0.00 | 99 | 1014.3 |
| 20260906082153 | 61 | 232 | 0.0 | 0.0 | 0.00 | 0.00 | 0.00 | 99 | 1014.6 |
| 20260906081649 | 61 | 216 | 0.0 | 0.0 | 0.00 | 0.00 | 0.00 | 99 | 1014.3 |
| 20260906081144 | 62 | 248 | 0.0 | 0.0 | 0.00 | 0.00 | 0.00 | 99 | 1014.6 |
| 20260906080640 | 62 | 252 | 0.0 | 0.0 | 0.00 | 0.00 | 0.00 | 99 | 1014.4 |
| 20260906080136 | 62 | 266 | 0.0 | 0.0 | 0.00 | 0.00 | 0.00 | 99 | 1014.4 |
| 20260906075630 | 62 | 266 | 0.0 | 0.0 | 0.00 | 0.00 | 0.00 | 99 | 1014.0 |
| 20260906075125 | 62 | 305 | 0.0 | 0.0 | 0.00 | 0.00 | 0.00 | 99 | 1013.9 |
| 20260906074620 | 62 | 228 | 0.0 | 0.0 | 0.00 | 0.00 | 0.00 | 99 | 1014.0 |
| 20260906074119 | 62 | 228 | 0.0 | 0.0 | 0.00 | 0.00 | 0.00 | 99 | 1014.3 |
| 20260906073614 | 62 | 228 | 0.0 | 0.0 | 0.00 | 0.00 | 0.00 | 99 | 1014.0 |
| 20260906073110 | 62 | 228 | 0.0 | 0.0 | 0.00 | 0.00 | 0.00 | 99 | 1014.2 |
| 20260906072604 | 62 | 227 | 0.0 | 0.0 | 0.00 | 0.00 | 0.00 | 99 | 1014.3 |
| 20260906072101 | 62 | 228 | 0.0 | 0.0 | 0.00 | 0.00 | 0.00 | 99 | 1014.4 |
| 20260906071557 | 62 | 228 | 0.0 | 0.0 | 0.00 | 0.00 | 0.00 | 99 | 1014.5 |
| 20260906071056 | 62 | 228 | 0.0 | 0.0 | 0.00 | 0.00 | 0.00 | 99 | 1014.5 |
| 20260906070553 | 62 | 314 | 0.0 | 0.0 | 0.00 | 0.00 | 0.00 | 99 | 1014.4 |
| 20260906070049 | 62 | 251 | 0.0 | 0.0 | 0.00 | 0.00 | 0.00 | 99 | 1014.6 |
| 20260906065548 | 62 | 251 | 0.0 | 0.0 | 0.00 | 0.00 | 0.00 | 99 | 1014.5 |
| 20260906065044 | 62 | 251 | 0.0 | 0.0 | 0.00 | 0.00 | 0.00 | 99 | 1014.4 |
| 20260906064540 | 62 | 251 | 0.0 | 0.0 | 0.00 | 0.00 | 0.00 | 99 | 1014.4 |
| 20260906064034 | 63 | 251 | 0.0 | 0.0 | 0.00 | 0.00 | 0.00 | 99 | 1014.4 |
| 20260906063530 | 63 | 251 | 0.0 | 0.0 | 0.00 | 0.00 | 0.00 | 99 | 1014.6 |
| 20260906063026 | 63 | 251 | 0.0 | 0.0 | 0.00 | 0.00 | 0.00 | 99 | 1014.7 |
| 20260906062521 | 63 | 251 | 0.0 | 0.0 | 0.00 | 0.00 | 0.00 | 99 | 1014.6 |
| 20260906062015 | 63 | 251 | 0.0 | 0.0 | 0.00 | 0.00 | 0.00 | 99 | 1014.5 |
| 20260906061512 | 63 | 251 | 0.0 | 0.0 | 0.00 | 0.00 | 0.00 | 99 | 1014.6 |
| 20260906061011 | 63 | 251 | 0.0 | 0.0 | 0.00 | 0.00 | 0.00 | 99 | 1014.7 |
| 20260906060508 | 63 | 61 | 0.0 | 0.0 | 0.00 | 0.00 | 0.00 | 99 | 1014.6 |
| 20260906060004 | 63 | 81 | 0.0 | 0.0 | 0.00 | 0.00 | 0.00 | 99 | 1014.6 |
| 20260906055500 | 63 | 226 | 0.0 | 0.0 | 0.00 | 0.00 | 0.00 | 99 | 1014.6 |
| 20260906054955 | 64 | 226 | 0.0 | 0.0 | 0.00 | 0.00 | 0.00 | 99 | 1014.5 |
| 20260906054454 | 64 | 232 | 0.0 | 0.0 | 0.00 | 0.00 | 0.00 | 99 | 1014.6 |
| 20260906053950 | 64 | 254 | 0.0 | 0.0 | 0.00 | 0.00 | 0.00 | 99 | 1014.5 |
| 20260906053446 | 64 | 268 | 0.0 | 0.0 | 0.00 | 0.00 | 0.00 | 99 | 1014.6 |
| 20260906052942 | 64 | 219 | 0.0 | 0.0 | 0.00 | 0.00 | 0.00 | 99 | 1014.6 |
| 20260906052438 | 64 | 244 | 0.0 | 0.0 | 0.00 | 0.00 | 0.00 | 99 | 1014.5 |
| 20260906051934 | 64 | 235 | 0.0 | 0.0 | 0.00 | 0.00 | 0.00 | 99 | 1014.3 |
| 20260906051429 | 64 | 179 | 0.0 | 0.0 | 0.00 | 0.00 | 0.00 | 99 | 1014.3 |
| 20260906050925 | 64 | 114 | 0.0 | 0.0 | 0.00 | 0.00 | 0.00 | 99 | 1014.3 |
| 20260906050425 | 64 | 186 | 0.0 | 0.0 | 0.00 | 0.00 | 0.00 | 99 | 1014.5 |
| 20260906045924 | 65 | 50 | 0.0 | 0.0 | 0.00 | 0.00 | 0.00 | 99 | 1014.5 |
| 20260906045423 | 65 | 255 | 0.0 | 0.0 | 0.00 | 0.00 | 0.00 | 99 | 1014.5 |
| 20260906044920 | 65 | 255 | 0.0 | 0.0 | 0.00 | 0.00 | 0.00 | 99 | 1014.4 |
| 20260906044419 | 65 | 255 | 0.0 | 0.0 | 0.00 | 0.00 | 0.00 | 99 | 1014.9 |
| 20260906043915 | 65 | 258 | 0.0 | 0.0 | 0.00 | 0.00 | 0.00 | 99 | 1014.7 |
| 20260906043411 | 65 | 253 | 0.0 | 0.0 | 0.00 | 0.00 | 0.00 | 99 | 1014.9 |
| 20260906042906 | 65 | 325 | 0.0 | 0.0 | 0.00 | 0.00 | 0.00 | 99 | 1014.8 |
| 20260906042405 | 65 | 264 | 0.0 | 0.0 | 0.00 | 0.00 | 0.00 | 99 | 1014.7 |
| 20260906041901 | 65 | 264 | 0.0 | 0.0 | 0.00 | 0.00 | 0.00 | 99 | 1014.9 |
| 20260906041357 | 65 | 265 | 0.0 | 0.0 | 0.00 | 0.00 | 0.00 | 99 | 1015.0 |
| 20260906040856 | 66 | 334 | 0.0 | 0.0 | 0.00 | 0.00 | 0.00 | 99 | 1015.1 |
| 20260906040352 | 66 | 263 | 0.0 | 0.0 | 0.00 | 0.00 | 0.00 | 99 | 1015.1 |
| 20260906035847 | 66 | 263 | 0.0 | 0.0 | 0.00 | 0.72 | 0.72 | 99 | 1015.1 |
| 20260906035342 | 66 | 263 | 0.0 | 0.0 | 0.00 | 0.72 | 0.72 | 99 | 1015.1 |
| 20260906034837 | 66 | 263 | 0.0 | 0.0 | 0.00 | 0.72 | 0.72 | 99 | 1015.4 |
| 20260906034332 | 66 | 270 | 0.0 | 0.0 | 0.00 | 0.72 | 0.72 | 99 | 1015.4 |
| 20260906033828 | 66 | 338 | 0.0 | 0.0 | 0.00 | 0.72 | 0.72 | 99 | 1015.6 |
| 20260906033327 | 66 | 244 | 0.0 | 0.0 | 0.00 | 0.72 | 0.72 | 99 | 1015.4 |
| 20260906032824 | 66 | 244 | 0.0 | 0.0 | 0.00 | 0.72 | 0.72 | 99 | 1015.4 |
| 20260906032320 | 66 | 247 | 0.0 | 0.0 | 0.00 | 0.72 | 0.72 | 99 | 1015.8 |
| 20260906031814 | 66 | 247 | 0.0 | 0.0 | 0.00 | 0.72 | 0.72 | 99 | 1015.4 |
| 20260906031310 | 66 | 5 | 0.0 | 0.0 | 0.00 | 0.72 | 0.72 | 99 | 1015.6 |
| 20260906030810 | 66 | 15 | 0.0 | 0.0 | 0.12 | 0.72 | 0.72 | 99 | 1015.7 |
| 20260906030305 | 66 | 156 | 0.0 | 0.0 | 0.73 | 0.72 | 0.72 | 99 | 1015.6 |
| 20260906025805 | 65 | 277 | 0.0 | 0.0 | 0.61 | 0.70 | 0.70 | 99 | 1015.4 |
| 20260906025259 | 65 | 113 | 0.0 | 0.0 | 0.00 | 0.60 | 0.60 | 99 | 1015.8 |
| 20260906024758 | 65 | 253 | 0.0 | 0.0 | 0.00 | 0.60 | 0.60 | 99 | 1015.6 |
| 20260906024257 | 65 | 239 | 0.0 | 0.0 | 0.00 | 0.60 | 0.60 | 99 | 1015.6 |
| 20260906023753 | 65 | 239 | 0.0 | 0.0 | 0.00 | 0.60 | 0.60 | 99 | 1015.7 |
| 20260906023248 | 65 | 255 | 0.0 | 0.0 | 0.00 | 0.60 | 0.60 | 99 | 1015.2 |
| 20260906022743 | 65 | 261 | 0.0 | 0.0 | 0.00 | 0.60 | 0.60 | 99 | 1015.2 |
| 20260906022238 | 65 | 249 | 0.0 | 0.0 | 0.00 | 0.60 | 0.60 | 99 | 1015.7 |
| 20260906021735 | 65 | 216 | 0.0 | 0.0 | 0.00 | 0.60 | 0.60 | 99 | 1015.4 |
| 20260906021233 | 66 | 320 | 0.0 | 0.0 | 0.00 | 0.60 | 0.60 | 99 | 1015.2 |
| 20260906020728 | 66 | 319 | 0.0 | 0.0 | 0.00 | 0.60 | 0.60 | 99 | 1015.2 |
| 20260906020223 | 65 | 319 | 0.0 | 0.0 | 0.00 | 0.60 | 0.60 | 99 | 1015.1 |
| 20260906015723 | 65 | 300 | 0.0 | 0.0 | 0.00 | 0.60 | 0.60 | 99 | 1015.2 |
| 20260906015221 | 65 | 299 | 0.0 | 0.0 | 0.00 | 0.60 | 0.60 | 99 | 1015.2 |
| 20260906014716 | 66 | 256 | 0.0 | 0.0 | 0.00 | 0.60 | 0.60 | 99 | 1015.0 |
| 20260906014212 | 65 | 284 | 0.0 | 0.0 | 0.00 | 0.60 | 0.60 | 99 | 1015.0 |
| 20260906013708 | 65 | 287 | 0.0 | 0.0 | 0.00 | 0.60 | 0.60 | 99 | 1015.1 |
| 20260906013208 | 66 | 284 | 0.0 | 0.0 | 0.00 | 0.60 | 0.60 | 99 | 1014.9 |
| 20260906012703 | 66 | 264 | 0.0 | 0.0 | 0.00 | 0.60 | 0.60 | 99 | 1014.9 |
| 20260906012158 | 66 | 283 | 0.0 | 0.0 | 0.00 | 0.60 | 0.60 | 99 | 1015.1 |
| 20260906011654 | 66 | 251 | 0.0 | 0.0 | 0.00 | 0.60 | 0.60 | 99 | 1015.0 |
| 20260906011154 | 66 | 219 | 0.0 | 0.0 | 0.00 | 0.60 | 0.60 | 99 | 1014.9 |
| 20260906010649 | 66 | 219 | 0.0 | 0.0 | 0.00 | 0.60 | 0.60 | 99 | 1014.7 |
| 20260906010146 | 66 | 230 | 0.0 | 0.0 | 0.00 | 0.60 | 0.60 | 99 | 1014.5 |
| 20260906005645 | 66 | 258 | 0.0 | 0.0 | 0.00 | 0.60 | 0.60 | 99 | 1014.6 |
| 20260906005144 | 66 | 260 | 0.0 | 0.0 | 0.00 | 0.60 | 0.60 | 99 | 1014.5 |
| 20260906004643 | 66 | 251 | 0.0 | 0.0 | 0.00 | 0.60 | 0.60 | 99 | 1014.6 |
| 20260906004138 | 67 | 251 | 0.0 | 0.0 | 0.00 | 0.60 | 0.60 | 99 | 1014.4 |
| 20260906003633 | 66 | 289 | 0.0 | 0.0 | 0.00 | 0.60 | 0.60 | 99 | 1014.0 |
| 20260906003129 | 67 | 249 | 0.0 | 0.0 | 0.00 | 0.60 | 0.60 | 99 | 1014.4 |
| 20260906002624 | 67 | 251 | 0.0 | 0.0 | 0.00 | 0.60 | 0.60 | 99 | 1014.3 |
| 20260906002119 | 67 | 257 | 0.0 | 0.0 | 0.00 | 0.60 | 0.60 | 99 | 1014.4 |
| 20260906001614 | 67 | 258 | 0.0 | 0.0 | 0.00 | 0.60 | 0.60 | 99 | 1014.3 |
| 20260906001108 | 67 | 236 | 0.0 | 0.0 | 0.00 | 0.60 | 0.60 | 99 | 1014.3 |
| 20260906000604 | 68 | 222 | 0.0 | 0.0 | 0.00 | 0.60 | 0.60 | 99 | 1014.5 |
| 20260906000059 | 68 | 247 | 0.0 | 0.0 | 0.00 | 0.60 | 0.60 | 99 | 1014.4 |
| 20260905235558 | 68 | 273 | 0.0 | 0.0 | 0.00 | 0.60 | 0.60 | 99 | 1014.3 |
| 20260905235054 | 69 | 228 | 0.0 | 0.0 | 0.00 | 0.60 | 0.60 | 99 | 1014.4 |
| 20260905234549 | 69 | 220 | 0.0 | 0.0 | 0.00 | 0.60 | 0.60 | 99 | 1014.6 |
| 20260905234044 | 69 | 246 | 0.0 | 0.0 | 0.00 | 0.60 | 0.60 | 98 | 1014.5 |
| 20260905233538 | 70 | 259 | 0.0 | 0.0 | 0.00 | 0.60 | 0.60 | 96 | 1014.5 |
| 20260905233038 | 70 | 259 | 0.0 | 0.0 | 0.00 | 0.60 | 0.60 | 96 | 1014.5 |
| 20260905232533 | 71 | 302 | 0.0 | 0.0 | 0.00 | 0.60 | 0.60 | 95 | 1014.6 |
| 20260905232029 | 71 | 248 | 0.0 | 0.0 | 0.00 | 0.60 | 0.60 | 95 | 1014.4 |
| 20260905231524 | 71 | 308 | 0.0 | 0.0 | 0.00 | 0.60 | 0.60 | 95 | 1014.4 |
| 20260905231021 | 71 | 238 | 0.0 | 0.0 | 0.00 | 0.60 | 0.60 | 95 | 1014.5 |
| 20260905230519 | 72 | 302 | 0.0 | 0.0 | 0.00 | 0.60 | 0.60 | 92 | 1014.7 |
| 20260905230018 | 72 | 302 | 0.0 | 0.0 | 0.00 | 0.60 | 0.60 | 92 | 1014.7 |
| 20260905225513 | 72 | 217 | 0.0 | 0.0 | 0.00 | 0.60 | 0.60 | 93 | 1014.7 |
| 20260905225008 | 73 | 234 | 0.0 | 0.0 | 0.00 | 0.60 | 0.60 | 91 | 1014.7 |
| 20260905224118 | 73 | 209 | 0.0 | 0.0 | 0.00 | 0.60 | 0.60 | 90 | 1014.7 |
| 20260905223616 | 73 | 209 | 0.0 | 0.0 | 0.00 | 0.60 | 0.60 | 90 | 1014.7 |
| 20260905223113 | 73 | 218 | 0.0 | 0.0 | 0.00 | 0.60 | 0.60 | 90 | 1014.6 |
| 20260905222612 | 74 | 176 | 0.0 | 0.0 | 0.00 | 0.60 | 0.60 | 86 | 1014.9 |
| 20260905222107 | 74 | 176 | 0.0 | 0.0 | 0.00 | 0.60 | 0.60 | 86 | 1014.9 |
| 20260905221603 | 73 | 199 | 0.0 | 0.0 | 0.00 | 0.60 | 0.60 | 88 | 1014.7 |
| 20260905221059 | 74 | 221 | 1.0 | 1.0 | 0.00 | 0.60 | 0.60 | 88 | 1014.5 |
| 20260905220554 | 74 | 103 | 1.0 | 3.0 | 0.00 | 0.60 | 0.60 | 81 | 1014.4 |
| 20260905220051 | 73 | 103 | 2.0 | 3.0 | 0.00 | 0.60 | 0.60 | 83 | 1014.5 |
| 20260905215550 | 73 | 190 | 0.0 | 0.0 | 0.00 | 0.60 | 0.60 | 88 | 1014.7 |
| 20260905215046 | 75 | 175 | 0.0 | 0.0 | 0.00 | 0.60 | 0.60 | 84 | 1014.3 |
| 20260905214542 | 75 | 142 | 0.0 | 0.0 | 0.00 | 0.60 | 0.60 | 83 | 1014.3 |
| 20260905214037 | 77 | 121 | 1.0 | 2.0 | 0.00 | 0.60 | 0.60 | 79 | 1014.3 |
| 20260905213532 | 78 | 133 | 1.0 | 2.0 | 0.00 | 0.60 | 0.60 | 76 | 1014.5 |
| 20260905213027 | 77 | 131 | 4.0 | 6.0 | 0.00 | 0.60 | 0.60 | 75 | 1014.3 |
| 20260905212522 | 77 | 131 | 4.0 | 6.0 | 0.00 | 0.60 | 0.60 | 75 | 1014.3 |
| 20260905212021 | 79 | 84 | 2.0 | 3.0 | 0.00 | 0.60 | 0.60 | 74 | 1014.3 |
| 20260905211517 | 78 | 106 | 0.0 | 2.0 | 0.00 | 0.60 | 0.60 | 74 | 1013.9 |
| 20260905211013 | 79 | 109 | 3.0 | 4.0 | 0.00 | 0.60 | 0.60 | 73 | 1013.9 |
| 20260905210508 | 78 | 116 | 2.0 | 2.0 | 0.00 | 0.60 | 0.60 | 75 | 1013.7 |
| 20260905210008 | 79 | 91 | 3.0 | 3.0 | 0.00 | 0.60 | 0.60 | 74 | 1013.7 |
| 20260905205502 | 77 | 130 | 1.0 | 3.0 | 0.00 | 0.60 | 0.60 | 76 | 1013.7 |
| 20260905205001 | 75 | 114 | 2.0 | 3.0 | 0.00 | 0.60 | 0.60 | 78 | 1013.7 |
| 20260905204457 | 78 | 122 | 3.0 | 4.0 | 0.00 | 0.60 | 0.60 | 75 | 1013.9 |
| 20260905203956 | 78 | 122 | 3.0 | 4.0 | 0.00 | 0.60 | 0.60 | 75 | 1013.9 |
| 20260905203451 | 78 | 122 | 3.0 | 4.0 | 0.00 | 0.60 | 0.60 | 75 | 1013.9 |
| 20260905202947 | 78 | 103 | 4.0 | 4.0 | 0.00 | 0.60 | 0.60 | 76 | 1013.5 |
| 20260905202442 | 77 | 123 | 3.0 | 4.0 | 0.00 | 0.60 | 0.60 | 76 | 1013.6 |
| 20260905201937 | 76 | 90 | 1.0 | 6.0 | 0.00 | 0.60 | 0.60 | 76 | 1013.9 |
| 20260905201432 | 76 | 90 | 1.0 | 6.0 | 0.00 | 0.60 | 0.60 | 76 | 1013.9 |
| 20260905200833 | 76 | 119 | 4.0 | 6.0 | 0.00 | 0.60 | 0.60 | 77 | 1013.7 |
| 20260905200330 | 76 | 119 | 4.0 | 6.0 | 0.00 | 0.60 | 0.60 | 77 | 1013.7 |
| 20260905195828 | 77 | 114 | 4.0 | 4.0 | 0.00 | 0.60 | 0.60 | 75 | 1014.0 |
| 20260905195323 | 77 | 93 | 3.0 | 4.0 | 0.00 | 0.60 | 0.60 | 74 | 1014.3 |
| 20260905194819 | 77 | 172 | 1.0 | 4.0 | 0.00 | 0.60 | 0.60 | 73 | 1014.3 |
| 20260905194318 | 77 | 172 | 1.0 | 4.0 | 0.00 | 0.60 | 0.60 | 73 | 1014.3 |
| 20260905193817 | 77 | 90 | 4.0 | 6.0 | 0.00 | 0.60 | 0.60 | 74 | 1013.9 |
| 20260905193313 | 77 | 105 | 4.0 | 4.0 | 0.00 | 0.60 | 0.60 | 76 | 1014.5 |
| 20260905192808 | 77 | 105 | 4.0 | 4.0 | 0.00 | 0.60 | 0.60 | 76 | 1014.5 |
| 20260905192306 | 77 | 116 | 4.0 | 7.0 | 0.00 | 0.60 | 0.60 | 75 | 1014.6 |
| 20260905191803 | 77 | 116 | 4.0 | 7.0 | 0.00 | 0.60 | 0.60 | 75 | 1014.6 |
| 20260905191302 | 77 | 104 | 4.0 | 6.0 | 0.00 | 0.60 | 0.60 | 72 | 1014.6 |
| 20260905190801 | 77 | 124 | 4.0 | 4.0 | 0.00 | 0.60 | 0.60 | 76 | 1014.8 |
| 20260905190300 | 77 | 129 | 4.0 | 6.0 | 0.00 | 0.60 | 0.60 | 76 | 1014.9 |
| 20260905185759 | 77 | 90 | 2.0 | 4.0 | 0.00 | 0.60 | 0.60 | 77 | 1015.0 |
| 20260905185255 | 77 | 90 | 2.0 | 4.0 | 0.00 | 0.60 | 0.60 | 77 | 1015.0 |
| 20260905184754 | 77 | 99 | 2.0 | 6.0 | 0.00 | 0.60 | 0.60 | 75 | 1014.8 |
| 20260905184247 | 76 | 113 | 1.0 | 1.0 | 0.00 | 0.60 | 0.60 | 78 | 1015.1 |
| 20260905183741 | 76 | 96 | 3.0 | 6.0 | 0.00 | 0.60 | 0.60 | 81 | 1015.0 |
| 20260905183237 | 76 | 96 | 1.0 | 3.0 | 0.00 | 0.60 | 0.60 | 82 | 1015.0 |
| 20260905182736 | 76 | 112 | 2.0 | 4.0 | 0.00 | 0.60 | 0.60 | 80 | 1015.1 |
| 20260905182236 | 76 | 111 | 1.0 | 2.0 | 0.00 | 0.60 | 0.60 | 77 | 1015.1 |
| 20260905181731 | 76 | 111 | 1.0 | 2.0 | 0.00 | 0.60 | 0.60 | 77 | 1015.1 |
| 20260905181230 | 76 | 147 | 1.0 | 2.0 | 0.00 | 0.60 | 0.60 | 83 | 1015.1 |
| 20260905180725 | 76 | 147 | 1.0 | 2.0 | 0.00 | 0.60 | 0.60 | 83 | 1015.1 |
| 20260905180220 | 76 | 110 | 2.0 | 3.0 | 0.00 | 0.60 | 0.60 | 82 | 1015.6 |
| 20260905175720 | 75 | 135 | 1.0 | 4.0 | 0.00 | 0.60 | 0.60 | 82 | 1015.6 |
| 20260905175215 | 74 | 119 | 0.0 | 2.0 | 0.00 | 0.60 | 0.60 | 85 | 1015.4 |
| 20260905174710 | 73 | 120 | 2.0 | 6.0 | 0.00 | 0.60 | 0.60 | 86 | 1015.7 |
| 20260905174206 | 72 | 121 | 4.0 | 6.0 | 0.00 | 0.60 | 0.60 | 86 | 1015.9 |
| 20260905173702 | 73 | 110 | 3.0 | 3.0 | 0.00 | 0.60 | 0.60 | 89 | 1015.8 |
| 20260905173157 | 74 | 117 | 3.0 | 6.0 | 0.00 | 0.60 | 0.60 | 88 | 1015.8 |
| 20260905172657 | 75 | 125 | 2.0 | 4.0 | 0.00 | 0.60 | 0.60 | 86 | 1015.8 |
| 20260905172151 | 74 | 129 | 4.0 | 6.0 | 0.00 | 0.60 | 0.60 | 87 | 1015.8 |
| 20260905171647 | 74 | 114 | 2.0 | 3.0 | 0.00 | 0.60 | 0.60 | 89 | 1016.0 |
| 20260905171143 | 73 | 112 | 2.0 | 3.0 | 0.00 | 0.60 | 0.60 | 89 | 1016.1 |
| 20260905170640 | 75 | 102 | 4.0 | 6.0 | 0.00 | 0.60 | 0.60 | 88 | 1015.9 |
| 20260905170135 | 75 | 116 | 4.0 | 6.0 | 0.00 | 0.60 | 0.60 | 86 | 1016.0 |
| 20260905165635 | 74 | 110 | 2.0 | 2.0 | 0.00 | 0.60 | 0.60 | 87 | 1015.9 |
| 20260905165130 | 74 | 130 | 6.0 | 8.0 | 0.00 | 0.60 | 0.60 | 87 | 1015.9 |
| 20260905164625 | 73 | 148 | 4.0 | 6.0 | 0.00 | 0.60 | 0.60 | 90 | 1016.2 |
| 20260905164124 | 72 | 116 | 4.0 | 6.0 | 0.00 | 0.60 | 0.60 | 93 | 1016.1 |
| 20260905163620 | 72 | 164 | 0.0 | 1.0 | 0.00 | 0.60 | 0.60 | 94 | 1016.0 |
| 20260905163116 | 72 | 112 | 3.0 | 4.0 | 0.00 | 0.60 | 0.60 | 93 | 1016.1 |
| 20260905162613 | 73 | 96 | 2.0 | 3.0 | 0.00 | 0.60 | 0.60 | 94 | 1016.0 |
| 20260905162111 | 72 | 93 | 3.0 | 6.0 | 0.00 | 0.60 | 0.60 | 92 | 1016.2 |
| 20260905161611 | 72 | 118 | 1.0 | 2.0 | 0.00 | 0.60 | 0.60 | 95 | 1016.2 |
| 20260905161110 | 72 | 125 | 2.0 | 2.0 | 0.00 | 0.60 | 0.60 | 95 | 1016.0 |
| 20260905160609 | 73 | 119 | 2.0 | 4.0 | 0.00 | 0.60 | 0.60 | 94 | 1016.1 |
| 20260905160109 | 73 | 99 | 1.0 | 4.0 | 0.00 | 0.60 | 0.60 | 95 | 1015.8 |
| 20260905155604 | 71 | 60 | 1.0 | 1.0 | 0.00 | 0.60 | 0.60 | 95 | 1015.7 |
| 20260905155102 | 71 | 84 | 0.0 | 1.0 | 0.00 | 0.60 | 0.60 | 97 | 1015.4 |
| 20260905154557 | 71 | 257 | 0.0 | 0.0 | 0.00 | 0.60 | 0.60 | 99 | 1015.0 |
| 20260905154052 | 70 | 23 | 0.0 | 3.0 | 0.00 | 0.60 | 0.60 | 99 | 1015.1 |
| 20260905153548 | 69 | 149 | 0.0 | 2.0 | 0.00 | 0.60 | 0.60 | 99 | 1015.6 |
| 20260905153048 | 68 | 79 | 0.0 | 1.0 | 0.00 | 0.60 | 0.60 | 99 | 1015.3 |
| 20260905152543 | 68 | 121 | 1.0 | 2.0 | 0.00 | 0.60 | 0.60 | 99 | 1015.6 |
| 20260905152038 | 68 | 66 | 1.0 | 1.0 | 0.00 | 0.60 | 0.60 | 99 | 1015.2 |
| 20260905151533 | 67 | 40 | 0.0 | 0.0 | 0.00 | 0.60 | 0.60 | 99 | 1015.2 |
| 20260905151028 | 67 | 90 | 0.0 | 1.0 | 0.00 | 0.60 | 0.60 | 99 | 1014.9 |
| 20260905150523 | 66 | 257 | 2.0 | 3.0 | 0.00 | 0.60 | 0.60 | 99 | 1014.6 |
| 20260905150022 | 66 | 295 | 3.0 | 3.0 | 0.00 | 0.60 | 0.60 | 99 | 1015.1 |
| 20260905145521 | 66 | 268 | 0.0 | 0.0 | 0.00 | 0.60 | 0.60 | 99 | 1015.7 |
| 20260905145020 | 66 | 258 | 0.0 | 0.0 | 0.00 | 0.60 | 0.60 | 99 | 1015.9 |
| 20260905144515 | 66 | 233 | 0.0 | 0.0 | 0.00 | 0.60 | 0.60 | 99 | 1016.2 |
| 20260905144014 | 65 | 312 | 0.0 | 0.0 | 0.05 | 0.60 | 0.60 | 99 | 1016.6 |
| 20260905143514 | 65 | 219 | 0.0 | 0.0 | 0.05 | 0.60 | 0.60 | 99 | 1016.8 |
| 20260905143009 | 65 | 242 | 0.0 | 0.0 | 0.00 | 0.59 | 0.59 | 99 | 1016.9 |
| 20260905142507 | 65 | 277 | 0.0 | 0.0 | 0.00 | 0.59 | 0.59 | 99 | 1017.2 |
| 20260905142004 | 65 | 67 | 0.0 | 0.0 | 0.07 | 0.59 | 0.59 | 99 | 1017.2 |
| 20260905141503 | 65 | 185 | 0.0 | 1.0 | 0.07 | 0.59 | 0.59 | 99 | 1016.9 |
| 20260905141000 | 65 | 294 | 0.0 | 0.0 | 0.00 | 0.58 | 0.58 | 99 | 1017.1 |
| 20260905140454 | 65 | 301 | 0.0 | 0.0 | 0.00 | 0.58 | 0.58 | 99 | 1017.1 |
| 20260905135953 | 65 | 278 | 0.0 | 0.0 | 0.00 | 0.58 | 0.58 | 99 | 1017.1 |
| 20260905135449 | 65 | 313 | 0.0 | 0.0 | 0.00 | 0.58 | 0.58 | 99 | 1017.4 |
| 20260905134944 | 65 | 240 | 0.0 | 0.0 | 0.00 | 0.58 | 0.58 | 99 | 1017.1 |
| 20260905134443 | 65 | 273 | 0.0 | 0.0 | 0.00 | 0.58 | 0.58 | 99 | 1017.3 |
| 20260905133942 | 65 | 266 | 1.0 | 1.0 | 0.05 | 0.58 | 0.58 | 99 | 1017.2 |
| 20260905133438 | 65 | 236 | 1.0 | 1.0 | 0.05 | 0.58 | 0.58 | 99 | 1017.3 |
| 20260905132937 | 65 | 227 | 0.0 | 2.0 | 0.07 | 0.57 | 0.57 | 99 | 1017.2 |
| 20260905132433 | 65 | 257 | 2.0 | 3.0 | 0.38 | 0.57 | 0.57 | 99 | 1016.9 |
| 20260905131927 | 65 | 31 | 0.0 | 1.0 | 0.35 | 0.56 | 0.56 | 99 | 1017.6 |
| 20260905131424 | 65 | 190 | 1.0 | 2.0 | 0.07 | 0.50 | 0.50 | 99 | 1017.7 |
| 20260905130924 | 65 | 248 | 0.0 | 0.0 | 0.12 | 0.50 | 0.50 | 99 | 1017.8 |
| 20260905130423 | 65 | 201 | 1.0 | 1.0 | 0.17 | 0.49 | 0.49 | 99 | 1017.9 |
| 20260905125923 | 65 | 147 | 1.0 | 3.0 | 0.38 | 0.48 | 0.48 | 99 | 1017.9 |
| 20260905125418 | 65 | 109 | 5.0 | 7.0 | 0.47 | 0.43 | 0.43 | 99 | 1018.0 |
| 20260905124914 | 65 | 109 | 0.0 | 3.0 | 0.78 | 0.41 | 0.41 | 99 | 1017.8 |
| 20260905124410 | 65 | 344 | 6.0 | 9.0 | 0.50 | 0.33 | 0.33 | 99 | 1017.9 |
| 20260905123910 | 65 | 132 | 8.0 | 11.0 | 0.83 | 0.27 | 0.27 | 99 | 1017.4 |
| 20260905123407 | 66 | 110 | 9.0 | 15.0 | 0.54 | 0.20 | 0.20 | 99 | 1016.9 |
| 20260905122902 | 65 | 102 | 11.0 | 18.0 | 0.12 | 0.13 | 0.13 | 99 | 1016.8 |
| 20260905122401 | 65 | 190 | 0.0 | 0.0 | 0.00 | 0.11 | 0.11 | 99 | 1015.9 |
| 20260905121857 | 65 | 190 | 0.0 | 0.0 | 0.00 | 0.11 | 0.11 | 99 | 1015.4 |
| 20260905121353 | 66 | 262 | 0.0 | 0.0 | 0.00 | 0.11 | 0.11 | 99 | 1015.7 |
| 20260905120852 | 66 | 89 | 0.0 | 0.0 | 0.00 | 0.11 | 0.11 | 99 | 1015.4 |